Flag Weather past 2 weeks in Newport News, Virginia, U.S.A.

Now
29 °F

Light snow. Clear.


Feels Like: 29 °F
Forecast: 30 / 48 °F
Wind: No wind

Location: Newport News / Williamsburg International Airport

Current Time: Nov 29, 2014 at 1:19:11 AM

Latest Report: Nov 29, 2014 at 12:54 AM


Visibility: 9 mi

Pressure: 30.31 "Hg

Humidity: 82%

Dew point: 24 °F

Location of Newport NewsLocation

Historic Weather in Newport News — Graph

°F

Newport News temperature yesterday

Maximum temperature yesterday: 46 °F (at 2:54 PM)
Minimum temperature yesterday: 29 °F (at 11:54 PM)
Average temperature yesterday: 38 °F

Past Weeks' High & Low Weather Summary

 TemperatureHumidityPressure
High76 °F (Nov 24, 12:54 PM)90% (Nov 17, 12:54 AM)30.58 "Hg (Nov 17, 12:54 AM)
Low24 °F (Nov 22, 4:54 AM)26% (Nov 22, 1:54 PM)29.55 "Hg (Nov 17, 4:54 PM)
Average46 °F62%30.14 "Hg
* Reported Nov 13 11:54 PM — Nov 28 11:54 PM, Newport News, Weather by CustomWeather, © 2014

Note: Actual official high and low records may vary slightly from our data, if they occured in-between our weather recording intervals... More about our weather records

Advertising

Newport News weather history for previous 24 hours

 ConditionsComfort  
Time TempWeatherWind HumidityBarometerVisibility
11:54 PM
Nov 28
29 °FClear.No wind82%30.31 "Hg7 mi
10:54 PM31 °FClear.No wind79%30.30 "Hg10 mi
9:54 PM31 °FClear.3 mph79%30.32 "Hg8 mi
8:54 PM33 °FClear.No wind70%30.32 "Hg10 mi
7:54 PM33 °FClear.No wind72%30.31 "Hg10 mi
6:54 PM34 °FClear.No wind70%30.30 "Hg10 mi
5:54 PM38 °FClear.No wind58%30.30 "Hg10 mi
4:54 PM42 °FClear.3 mph43%30.29 "Hg10 mi
3:54 PM44 °FSunny.5 mph40%30.28 "Hg10 mi
2:54 PM46 °FSunny.7 mph38%30.27 "Hg10 mi
1:54 PM45 °FSunny.13 mph38%30.26 "Hg10 mi
12:54 PM45 °FSunny.10 mph40%30.27 "Hg10 mi
11:54 AM44 °FSunny.14 mph41%30.29 "Hg10 mi
10:54 AM42 °FSunny.12 mph47%30.32 "Hg10 mi
9:54 AM41 °FSunny.13 mph51%30.32 "Hg10 mi
8:54 AM39 °FSunny.10 mph57%30.32 "Hg10 mi
7:54 AM36 °FSunny.6 mph64%30.30 "Hg10 mi
6:54 AM34 °FClear.6 mph67%30.27 "Hg10 mi
5:54 AM35 °FClear.8 mph67%30.26 "Hg10 mi
4:54 AM36 °FClear.8 mph64%30.25 "Hg10 mi
3:54 AM37 °FClear.10 mph67%30.23 "Hg10 mi
2:54 AM36 °FClear.8 mph70%30.21 "Hg10 mi
1:54 AM37 °FClear.7 mph73%30.19 "Hg10 mi
Weather by CustomWeather, © 2014

See weather overviewHow to use our weather pages